User: anonymous   Login
Location: Desert Center
(33.7130°N, 115.4010°W)
Time: 03:46:01
(UTC-08:00)
Language:

USA 215 - Orbit

View from above orbital plane
View from above orbital plane
View from above satellite
View from above satellite

Ground track
Ground track

The orbit data is extracted from the following two-line orbital elements,

1 37162U 10046A   16035.72342754 0.00000000  00000-0  00000-0 0    02
2 37162 123.0008  68.4956 0004358 143.3455 216.6545 13.41457505    02
Epoch (UTC): 04 February 2016 17:21:44
Eccentricity: 0.0004358
inclination: 123.0008°
perigee height: 1100 km
apogee height: 1107 km
right ascension of ascending node: 68.4956°
argument of perigee: 143.3455°
revolutions per day: 13.41457505
mean anomaly at epoch: 216.6545°
orbit number at epoch: 0

The dashed part of the orbit path shows where the satellite is in the earth's shadow,  

DLR